DW9029 Weather Reports


Display with metric or nautical units.
time (UTC)temp
F
wind
direction
speed
MPH
gust
MPH
rain 1hr
in
rain 24hr
in
rain mn
in
humidity
%
barometer
mb
20260508201904 64 257 1.0 8.0 0.00 0.00 0.00 60 1008.5
20260508201405 65 223 3.0 10.0 0.00 0.00 0.00 59 1008.5
20260508200904 65 236 5.0 14.0 0.00 0.00 0.00 59 1008.5
20260508200405 65 211 5.0 12.0 0.00 0.00 0.00 58 1008.4
20260508194905 66 230 5.0 9.0 0.00 0.00 0.00 55 1008.2
20260508194404 66 235 3.0 9.0 0.00 0.00 0.00 54 1008.1
20260508193405 66 224 3.0 16.0 0.00 0.00 0.00 52 1008.1
20260508191905 67 213 9.0 12.0 0.00 0.00 0.00 50 1007.9
20260508191405 68 225 5.0 14.0 0.00 0.00 0.00 50 1007.9
20260508190905 68 212 6.0 10.0 0.00 0.00 0.00 51 1007.8
20260508190405 68 217 5.0 12.0 0.00 0.00 0.00 52 1007.7
20260508184906 68 226 6.0 12.0 0.00 0.00 0.00 53 1007.6
20260508184405 69 220 5.0 10.0 0.00 0.00 0.00 53 1007.5
20260508183905 69 228 3.0 10.0 0.00 0.00 0.00 53 1007.5
20260508183405 69 205 4.0 12.0 0.00 0.00 0.00 54 1007.4
20260508181905 70 233 6.0 15.0 0.00 0.00 0.00 52 1007.3
20260508181405 70 216 9.0 15.0 0.00 0.00 0.00 51 1007.3
20260508180905 71 227 6.0 12.0 0.00 0.00 0.00 50 1007.2
20260508180404 71 226 3.0 10.0 0.00 0.00 0.00 51 1007.1
20260508174904 71 232 7.0 12.0 0.00 0.00 0.00 50 1007.0
20260508174405 71 225 5.0 12.0 0.00 0.00 0.00 50 1007.0
20260508173904 72 246 5.0 10.0 0.00 0.00 0.00 49 1006.9
20260508173404 72 220 5.0 12.0 0.00 0.00 0.00 49 1006.9
20260508171905 73 248 4.0 9.0 0.00 0.00 0.00 47 1006.9
20260508170904 73 223 3.0 6.0 0.00 0.00 0.00 47 1006.8
20260508170405 73 163 3.0 12.0 0.00 0.00 0.00 47 1006.9
20260508164905 73 207 2.0 12.0 0.00 0.00 0.00 47 1006.9
20260508164405 73 213 5.0 10.0 0.00 0.00 0.00 47 1007.0
20260508163905 73 141 7.0 12.0 0.00 0.00 0.00 46 1007.0
20260508163405 74 197 3.0 13.0 0.00 0.00 0.00 45 1007.0
20260508161905 74 210 4.0 8.0 0.00 0.00 0.00 44 1007.1
20260508161405 74 205 7.0 12.0 0.00 0.00 0.00 44 1007.2
20260508160904 74 154 3.0 7.0 0.00 0.00 0.00 44 1007.2
20260508160404 74 232 6.0 13.0 0.00 0.00 0.00 44 1007.3
20260508154405 74 206 4.0 7.0 0.00 0.00 0.00 44 1007.2
20260508153405 74 190 0.0 12.0 0.00 0.00 0.00 43 1007.2
20260508151904 74 234 5.0 12.0 0.00 0.00 0.00 43 1007.5
20260508151405 74 217 6.0 10.0 0.00 0.00 0.00 43 1007.6
20260508150905 73 130 1.0 12.0 0.00 0.00 0.00 43 1007.6
20260508150405 73 169 3.0 9.0 0.00 0.00 0.00 43 1007.7
20260508144905 74 135 2.0 12.0 0.00 0.00 0.00 43 1008.0
20260508143905 73 213 1.0 6.0 0.00 0.00 0.00 42 1008.2
20260508143404 73 172 5.0 10.0 0.00 0.00 0.00 44 1008.4
20260508141904 73 102 6.0 12.0 0.00 0.00 0.00 43 1008.7
20260508140905 73 212 2.0 9.0 0.00 0.00 0.00 43 1008.7
20260508134905 72 213 0.0 2.0 0.00 0.00 0.00 44 1009.2
20260508134405 72 231 4.0 12.0 0.00 0.00 0.00 44 1009.2
20260508133905 72 190 2.0 12.0 0.00 0.00 0.00 44 1009.3
20260508133405 72 193 7.0 10.0 0.00 0.00 0.00 44 1009.4
20260508131905 71 203 0.0 7.0 0.00 0.00 0.00 47 1009.4
20260508130905 71 201 5.0 12.0 0.00 0.00 0.00 46 1009.5
20260508130405 71 218 4.0 14.0 0.00 0.00 0.00 46 1009.6
20260508124905 70 201 0.0 3.0 0.00 0.00 0.00 46 1009.9
20260508124404 70 206 5.0 10.0 0.00 0.00 0.00 45 1010.0
20260508123905 70 261 0.0 7.0 0.00 0.00 0.00 47 1009.9
20260508123405 70 218 5.0 10.0 0.00 0.00 0.00 46 1010.0
20260508121905 69 197 4.0 10.0 0.00 0.00 0.00 48 1010.2
20260508121405 70 199 1.0 9.0 0.00 0.00 0.00 48 1010.2
20260508120904 70 184 2.0 7.0 0.00 0.00 0.00 48 1010.3
20260508120404 70 140 3.0 9.0 0.00 0.00 0.00 48 1010.3
20260508114904 70 119 5.0 12.0 0.00 0.00 0.00 50 1010.4
20260508114405 69 219 5.0 8.0 0.00 0.00 0.00 50 1010.4
20260508113904 69 183 4.0 7.0 0.00 0.00 0.00 51 1010.5
20260508111904 69 126 0.0 8.0 0.00 0.00 0.00 51 1010.6
20260508111405 69 183 2.0 8.0 0.00 0.00 0.00 51 1010.6
20260508110904 68 178 3.0 9.0 0.00 0.00 0.00 51 1010.7
20260508110404 68 181 6.0 12.0 0.00 0.00 0.00 52 1010.7
20260508104905 69 213 2.0 6.0 0.00 0.00 0.00 50 1010.8
20260508104404 68 65 0.0 8.0 0.00 0.00 0.00 50 1010.7
20260508103905 68 168 5.0 10.0 0.00 0.00 0.00 50 1010.8
20260508103405 68 208 5.0 10.0 0.00 0.00 0.00 52 1010.9
20260508101405 67 229 4.0 8.0 0.00 0.00 0.00 53 1011.0
20260508100905 66 222 1.0 3.0 0.00 0.00 0.00 56 1011.0
20260508100405 66 205 6.0 10.0 0.00 0.00 0.00 55 1011.2
20260508094905 66 226 5.0 8.0 0.00 0.00 0.00 56 1011.2
20260508094405 66 206 3.0 8.0 0.00 0.00 0.00 57 1011.3
20260508093904 66 216 4.0 12.0 0.00 0.00 0.00 59 1011.4
20260508093405 66 186 3.0 12.0 0.00 0.00 0.00 58 1011.4
20260508091405 65 219 6.0 12.0 0.00 0.00 0.00 61 1011.5
20260508090905 64 219 5.0 9.0 0.00 0.00 0.00 63 1011.4
20260508084405 64 195 1.0 7.0 0.00 0.00 0.00 66 1011.4
20260508083904 63 230 3.0 9.0 0.00 0.00 0.00 67 1011.4
20260508083404 63 191 5.0 12.0 0.00 0.00 0.00 68 1011.4
20260508081905 62 220 4.0 9.0 0.00 0.00 0.00 71 1011.5
20260508081405 62 224 1.0 6.0 0.00 0.00 0.00 74 1011.4
20260508080404 61 207 1.0 6.0 0.00 0.00 0.00 75 1011.4
20260508074904 61 215 0.0 0.0 0.00 0.00 0.00 75 1011.3
20260508073405 61 145 2.0 7.0 0.00 0.00 0.00 76 1011.1
20260508071905 60 138 2.0 5.0 0.00 0.00 0.00 77 1010.9
20260508064905 58 174 1.0 5.0 0.00 0.00 0.00 79 1010.9
20260508063905 58 156 2.0 5.0 0.00 0.00 0.00 80 1010.9
20260508063405 58 147 2.0 6.0 0.00 0.00 0.00 80 1010.8
20260508061905 57 172 0.0 2.0 0.00 0.00 0.00 81 1010.7
20260508061405 57 161 0.0 3.0 0.00 0.00 0.00 81 1010.8
20260508060904 57 181 0.0 0.0 0.00 0.00 0.00 80 1010.7
20260508060405 57 182 0.0 5.0 0.00 0.00 0.00 80 1010.6
20260508054404 57 192 0.0 1.0 0.00 0.00 0.00 81 1010.6
20260508053905 57 180 0.0 0.0 0.00 0.00 0.00 80 1010.5
20260508053404 57 180 0.0 0.0 0.00 0.00 0.00 80 1010.4
20260508051905 57 180 0.0 0.0 0.00 0.00 0.00 80 1010.1
20260508051405 57 182 0.0 0.0 0.00 0.00 0.00 80 1009.9
20260508050905 57 182 0.0 0.0 0.00 0.00 0.00 80 1009.9
20260508050405 57 182 0.0 5.0 0.00 0.00 0.00 79 1009.8
20260508044905 58 221 0.0 3.0 0.00 0.00 0.00 79 1009.8
20260508044404 58 201 0.0 2.0 0.00 0.00 0.00 79 1009.7
20260508043904 58 197 0.0 0.0 0.00 0.00 0.00 79 1009.6
20260508041905 58 202 0.0 3.0 0.00 0.00 0.00 79 1009.3
20260508041405 58 207 0.0 0.0 0.00 0.00 0.00 79 1009.5
20260508040905 58 209 0.0 1.0 0.00 0.00 0.00 79 1009.5
20260508034904 57 221 1.0 3.0 0.00 0.00 0.00 79 1009.7
20260508033905 57 188 0.0 0.0 0.00 0.00 0.00 79 1009.4
20260508033405 57 189 0.0 2.0 0.00 0.00 0.00 79 1009.4
20260508031904 57 175 0.0 0.0 0.00 0.00 0.00 79 1009.7
20260508031405 57 177 0.0 0.0 0.00 0.00 0.00 79 1009.6
20260508030905 57 178 0.0 0.0 0.00 0.00 0.00 79 1009.8
20260508024904 58 180 0.0 0.0 0.00 0.00 0.00 78 1009.9
20260508024405 58 180 0.0 1.0 0.00 0.00 0.00 78 1010.0
20260508023905 58 181 0.0 2.0 0.00 0.00 0.00 78 1009.8
20260508023405 58 188 0.0 3.0 0.00 0.00 0.00 78 1009.7
20260508021904 58 200 0.0 0.0 0.00 0.00 0.00 77 1009.9
20260508020904 58 204 1.0 5.0 0.00 0.00 0.00 77 1009.9
20260508020405 58 197 1.0 3.0 0.00 0.00 0.00 77 1009.8
20260508014905 59 189 0.0 5.0 0.00 0.00 0.00 76 1009.9
20260508014405 59 188 1.0 3.0 0.00 0.00 0.00 76 1009.9
20260508013905 59 193 0.0 0.0 0.00 0.00 0.00 76 1010.0
20260508013405 59 192 0.0 3.0 0.00 0.00 0.00 76 1010.1
20260508011905 59 210 1.0 3.0 0.00 0.00 0.00 76 1010.1
20260508011405 59 205 0.0 3.0 0.00 0.00 0.00 76 1010.1
20260508010904 59 204 0.0 1.0 0.00 0.00 0.00 76 1010.1
20260508004905 59 185 0.0 3.0 0.00 0.00 0.00 76 1010.3
20260508004405 59 203 0.0 3.0 0.00 0.00 0.00 76 1010.4
20260508003904 59 184 2.0 6.0 0.00 0.00 0.00 76 1010.3
20260508001905 60 166 1.0 5.0 0.00 0.00 0.00 77 1010.1
20260508001404 60 193 0.0 0.0 0.00 0.00 0.00 77 1010.0
20260508000905 60 196 1.0 3.0 0.00 0.00 0.00 76 1010.1
20260508000405 60 172 1.0 3.0 0.00 0.00 0.00 76 1010.1
20260507234905 60 185 0.0 3.0 0.00 0.00 0.00 76 1010.4
20260507234405 60 194 0.0 2.0 0.00 0.00 0.00 76 1010.4
20260507233905 60 183 0.0 0.0 0.00 0.00 0.00 76 1010.2
20260507233405 60 186 1.0 3.0 0.00 0.00 0.00 76 1010.2
20260507231905 60 188 0.0 0.0 0.00 0.00 0.00 75 1010.2
20260507231405 60 188 0.0 0.0 0.00 0.00 0.00 75 1010.2
20260507230905 60 188 0.0 0.0 0.00 0.00 0.00 75 1010.4
20260507230405 60 191 0.0 1.0 0.00 0.00 0.00 74 1010.5
20260507224905 60 192 0.0 0.0 0.00 0.00 0.00 74 1010.6
20260507224404 60 192 0.0 0.0 0.00 0.00 0.00 73 1010.7
20260507223905 61 198 1.0 5.0 0.00 0.00 0.00 73 1010.8
20260507223404 61 207 0.0 0.0 0.00 0.00 0.00 73 1010.8
20260507221905 61 178 1.0 3.0 0.00 0.00 0.00 72 1010.8
20260507221405 61 192 1.0 3.0 0.00 0.00 0.00 72 1010.9
20260507220405 61 180 0.0 5.0 0.00 0.00 0.00 71 1010.9
20260507214904 61 186 0.0 3.0 0.00 0.00 0.00 70 1010.8
20260507214405 61 176 0.0 0.0 0.00 0.00 0.00 69 1010.7
20260507213904 62 199 0.0 1.0 0.00 0.00 0.00 67 1010.7
20260507211904 62 190 0.0 5.0 0.00 0.00 0.00 64 1010.7
20260507210405 63 252 1.0 5.0 0.00 0.00 0.00 64 1010.5
20260507204905 63 269 1.0 5.0 0.00 0.00 0.00 63 1010.2
20260507204405 63 251 0.0 5.0 0.00 0.00 0.00 63 1010.2
20260507203905 63 255 2.0 7.0 0.00 0.00 0.00 63 1010.1